Карточка аэропорта UNKL

Внимание!
Информация на этой странице в стадии наполнения.
Если вы не увидели какой-то информации, или заметили неточность - пожалуйста сообщите нам!
Спасибо!
Команда RU-STAFF
Название аэропортаЕмельяново
Название аэропорта (англ.)Yemelyanovo
Превышение942 ft. (287.1 m.)
Координаты56°10.386', 92°29.598'
Высота перехода1200m
Эшелон переходаQFE>=729mm: FL060; QFE<729mm: FL070
Коды ответчика5320-5377
Зона ОрВДКрасноярск РПИ (UNKL)
Данные METARUNKL 262230Z 23006MPS CAVOK M05/M12 Q1016 R29/390137 NOSIG RMK QFE736
Проноз погоды (TAF)UNKL 261958Z 2621/2721 24009G19MPS 6000 -SHSN BLSN BKN016CB TEMPO 2709/2714 27014G23MPS 0900 +SHSN BLSN BKN003 BKN016CB BECMG 2714/2716 1700 SHSN BLSN BECMG 2717/2719 25004G11MPS 6000 -SHSN
NOTAMshow/hide NOTAM
AWOS   TABLE

Информация о ВПП

ВПП Длина ВПП (м.) Покрытие Курс ВПП Частота ILS
293700Асфальтобетон289111.7
113700Асфальтобетон109110.5

Диспетчерские позиции

Позывной Наименование органа УВД Частота
UNKL_TWRКрасноярск-Старт/Посадка118.3
UNKL_GNDКрасноярск-Руление121.9
UNKL_APPКрасноярск-Подход127.7
UNKL_R_APPКрасноярск-Круг122.0



Спутниковое изображение